KE6LRO Weather Reports


Display with metric or nautical units.
time (UTC)temp
F
wind
direction
speed
MPH
gust
MPH
rain 1hr
in
rain 24hr
in
rain mn
in
humidity
%
barometer
mb
20260510212501 82 327 1.0 3.0 0.00 0.00 0.00 26 1018.2
20260510211957 80 316 3.0 5.0 0.00 0.00 0.00 27 1018.4
20260510211455 79 330 3.0 5.0 0.00 0.00 0.00 25 1018.5
20260510210954 77 328 2.0 2.0 0.00 0.00 0.00 25 1018.7
20260510210450 76 317 3.0 8.0 0.00 0.00 0.00 25 1018.5
20260510205949 76 0 6.0 8.0 0.00 0.00 0.00 25 1018.8
20260510205445 77 11 3.0 7.0 0.00 0.00 0.00 26 1018.7
20260510204941 78 331 1.0 7.0 0.00 0.00 0.00 29 1018.8
20260510204437 79 312 3.0 8.0 0.00 0.00 0.00 30 1018.7
20260510203934 79 333 0.0 3.0 0.00 0.00 0.00 29 1018.7
20260510203432 78 331 3.0 5.0 0.00 0.00 0.00 29 1018.6
20260510202932 77 10 3.0 5.0 0.00 0.00 0.00 28 1018.7
20260510202428 78 326 4.0 7.0 0.00 0.00 0.00 32 1019.1
20260510201925 77 333 1.0 3.0 0.00 0.00 0.00 26 1018.9
20260510201422 78 334 1.0 3.0 0.00 0.00 0.00 33 1019.1
20260510200918 76 334 2.0 7.0 0.00 0.00 0.00 28 1019.1
20260510200418 77 321 3.0 7.0 0.00 0.00 0.00 33 1019.2
20260510195912 76 323 3.0 8.0 0.00 0.00 0.00 33 1019.2
20260510195409 76 325 2.0 9.0 0.00 0.00 0.00 35 1019.3
20260510194904 77 311 7.0 9.0 0.00 0.00 0.00 31 1019.4
20260510194400 76 0 3.0 3.0 0.00 0.00 0.00 33 1019.3
20260510193856 74 312 2.0 7.0 0.00 0.00 0.00 34 1019.2
20260510193351 73 342 1.0 6.0 0.00 0.00 0.00 36 1019.3
20260510192847 73 310 4.0 10.0 0.00 0.00 0.00 35 1019.5
20260510192343 73 304 6.0 9.0 0.00 0.00 0.00 33 1019.5
20260510191839 74 288 8.0 10.0 0.00 0.00 0.00 34 1019.6
20260510191335 73 13 3.0 9.0 0.00 0.00 0.00 36 1019.6
20260510190833 73 304 4.0 8.0 0.00 0.00 0.00 34 1019.8
20260510190331 71 347 3.0 8.0 0.00 0.00 0.00 38 1020.3
20260510185826 72 328 1.0 8.0 0.00 0.00 0.00 40 1020.4
20260510185324 72 350 3.0 8.0 0.00 0.00 0.00 37 1020.3
20260510184822 71 307 6.0 8.0 0.00 0.00 0.00 38 1020.3
20260510184319 71 302 3.0 5.0 0.00 0.00 0.00 37 1020.4
20260510183818 71 317 1.0 6.0 0.00 0.00 0.00 39 1020.6
20260510183314 70 0 3.0 5.0 0.00 0.00 0.00 39 1020.8
20260510182810 71 312 5.0 8.0 0.00 0.00 0.00 36 1020.7
20260510182307 71 331 1.0 3.0 0.00 0.00 0.00 38 1020.9
20260510181803 69 334 1.0 7.0 0.00 0.00 0.00 41 1020.8
20260510181300 69 323 4.0 6.0 0.00 0.00 0.00 38 1021.1
20260510180756 69 332 5.0 6.0 0.00 0.00 0.00 39 1021.1
20260510180254 69 353 2.0 6.0 0.00 0.00 0.00 41 1021.1
20260510175750 67 336 3.0 3.0 0.00 0.00 0.00 41 1021.3
20260510175245 68 329 4.0 6.0 0.00 0.00 0.00 39 1021.3
20260510174743 68 351 2.0 6.0 0.00 0.00 0.00 41 1021.3
20260510174240 68 5 1.0 5.0 0.00 0.00 0.00 40 1021.6
20260510173731 67 325 2.0 5.0 0.00 0.00 0.00 41 1021.6
20260510173227 67 277 5.0 6.0 0.00 0.00 0.00 40 1021.5
20260510172722 66 329 0.0 5.0 0.00 0.00 0.00 45 1021.5
20260510172219 65 337 1.0 6.0 0.00 0.00 0.00 42 1021.7
20260510171716 66 334 1.0 5.0 0.00 0.00 0.00 42 1021.7
20260510171213 64 305 4.0 5.0 0.00 0.00 0.00 44 1021.8
20260510170710 63 357 0.0 1.0 0.00 0.00 0.00 45 1021.8
20260510170205 63 14 2.0 6.0 0.00 0.00 0.00 47 1021.8
20260510165701 62 328 3.0 5.0 0.00 0.00 0.00 47 1022.1
20260510165157 63 10 3.0 3.0 0.00 0.00 0.00 45 1022.1
20260510164655 61 355 0.0 5.0 0.00 0.00 0.00 50 1022.3
20260510164152 62 348 5.0 6.0 0.00 0.00 0.00 47 1022.5
20260510163647 61 343 0.0 6.0 0.00 0.00 0.00 49 1022.4
20260510163143 60 317 2.0 2.0 0.00 0.00 0.00 47 1022.4
20260510162643 59 332 2.0 5.0 0.00 0.00 0.00 49 1022.5
20260510162140 59 339 1.0 3.0 0.00 0.00 0.00 51 1022.6
20260510161636 58 336 1.0 2.0 0.00 0.00 0.00 53 1022.7
20260510161133 58 7 1.0 3.0 0.00 0.00 0.00 54 1022.7
20260510160630 58 10 1.0 2.0 0.00 0.00 0.00 54 1022.4
20260510160130 57 348 0.0 2.0 0.00 0.00 0.00 54 1022.8
20260510155626 54 358 3.0 3.0 0.00 0.00 0.00 59 1022.8
20260510155122 57 1 2.0 3.0 0.00 0.00 0.00 56 1023.0
20260510154618 57 330 2.0 2.0 0.00 0.00 0.00 54 1023.0
20260510154114 55 311 0.0 2.0 0.00 0.00 0.00 58 1023.0
20260510153609 54 338 0.0 2.0 0.00 0.00 0.00 60 1023.0
20260510153106 54 6 1.0 1.0 0.00 0.00 0.00 60 1023.2
20260510152602 53 335 0.0 3.0 0.00 0.00 0.00 64 1023.1
20260510152059 53 352 2.0 3.0 0.00 0.00 0.00 66 1023.2
20260510151555 51 342 0.0 0.0 0.00 0.00 0.00 63 1023.2
20260510151053 52 351 0.0 0.0 0.00 0.00 0.00 69 1023.3
20260510150547 50 342 0.0 0.0 0.00 0.00 0.00 72 1023.3
20260510150044 49 343 0.0 0.0 0.00 0.00 0.00 76 1023.3
20260510145541 47 339 0.0 1.0 0.00 0.00 0.00 75 1023.3
20260510145037 46 342 0.0 0.0 0.00 0.00 0.00 77 1023.5
20260510144534 46 342 0.0 0.0 0.00 0.00 0.00 80 1023.5
20260510144030 45 342 0.0 0.0 0.00 0.00 0.00 80 1023.5
20260510143525 45 336 0.0 0.0 0.00 0.00 0.00 81 1023.6
20260510143022 42 336 0.0 0.0 0.00 0.00 0.00 86 1024.0
20260510142519 41 336 0.0 0.0 0.00 0.00 0.00 88 1023.8
20260510142015 40 336 0.0 0.0 0.00 0.00 0.00 89 1024.1
20260510141512 39 336 0.0 0.0 0.00 0.00 0.00 92 1024.0
20260510141010 36 335 0.0 0.0 0.00 0.00 0.00 98 1024.1
20260510140506 35 335 0.0 0.0 0.00 0.00 0.00 98 1024.1
20260510140006 35 334 0.0 0.0 0.00 0.00 0.00 99 1023.8
20260510135501 33 334 0.0 0.0 0.00 0.00 0.00 99 1024.0
20260510134958 33 334 0.0 0.0 0.00 0.00 0.00 99 1024.1
20260510134455 33 332 0.0 0.0 0.00 0.00 0.00 99 1024.1
20260510133952 32 332 0.0 0.0 0.00 0.00 0.00 99 1024.1
20260510133448 32 332 0.0 0.0 0.00 0.00 0.00 99 1024.2
20260510132943 32 332 0.0 0.0 0.00 0.00 0.00 99 1024.0
20260510132441 32 331 0.0 0.0 0.00 0.00 0.00 99 1024.2
20260510131938 32 336 0.0 0.0 0.00 0.00 0.00 99 1024.1
20260510131435 32 336 0.0 0.0 0.00 0.00 0.00 99 1024.3
20260510130932 32 336 0.0 0.0 0.00 0.00 0.00 99 1024.2
20260510130429 32 336 0.0 0.0 0.00 0.00 0.00 99 1024.3
20260510125926 32 337 0.0 0.0 0.00 0.00 0.00 99 1024.3
20260510125421 31 336 0.0 0.0 0.00 0.00 0.00 99 1024.2
20260510124919 31 336 0.0 0.0 0.00 0.00 0.00 99 1024.3
20260510124415 31 336 0.0 0.0 0.00 0.00 0.00 99 1024.1
20260510123912 31 336 0.0 0.0 0.00 0.00 0.00 99 1024.1
20260510123407 31 329 0.0 0.0 0.00 0.00 0.00 99 1024.1
20260510122904 30 339 0.0 0.0 0.00 0.00 0.00 99 1024.3
20260510122359 31 335 0.0 0.0 0.00 0.00 0.00 99 1024.3
20260510121855 30 344 0.0 0.0 0.00 0.00 0.00 99 1024.1
20260510121354 31 345 0.0 0.0 0.00 0.00 0.00 99 1024.2
20260510120850 31 352 0.0 0.0 0.00 0.00 0.00 99 1024.4
20260510120348 31 335 0.0 0.0 0.00 0.00 0.00 99 1024.3
20260510115843 31 336 0.0 0.0 0.00 0.00 0.00 99 1024.4
20260510115341 31 335 0.0 0.0 0.00 0.00 0.00 99 1024.2
20260510114836 31 337 0.0 0.0 0.00 0.00 0.00 99 1024.3
20260510114334 31 332 0.0 0.0 0.00 0.00 0.00 99 1024.1
20260510113833 31 332 0.0 0.0 0.00 0.00 0.00 99 1024.3
20260510113330 31 333 0.0 0.0 0.00 0.00 0.00 99 1024.3
20260510112827 31 332 0.0 0.0 0.00 0.00 0.00 99 1024.2
20260510112324 31 338 0.0 0.0 0.00 0.00 0.00 99 1024.1
20260510111820 32 331 0.0 0.0 0.00 0.00 0.00 99 1024.3
20260510111317 32 336 0.0 0.0 0.00 0.00 0.00 99 1024.3
20260510110816 32 336 0.0 0.0 0.00 0.00 0.00 98 1024.4
20260510110314 32 334 0.0 0.0 0.00 0.00 0.00 99 1024.3
20260510105810 32 339 0.0 0.0 0.00 0.00 0.00 98 1024.4
20260510105306 32 341 0.0 0.0 0.00 0.00 0.00 98 1024.3
20260510104801 32 333 0.0 0.0 0.00 0.00 0.00 98 1024.3
20260510104259 32 339 0.0 0.0 0.00 0.00 0.00 98 1024.3
20260510103755 32 339 0.0 0.0 0.00 0.00 0.00 98 1024.4
20260510103252 32 343 0.0 0.0 0.00 0.00 0.00 98 1024.5
20260510102752 33 343 0.0 0.0 0.00 0.00 0.00 98 1024.4
20260510102248 33 340 0.0 0.0 0.00 0.00 0.00 98 1024.4
20260510101745 33 340 0.0 0.0 0.00 0.00 0.00 98 1024.3
20260510101244 33 347 0.0 0.0 0.00 0.00 0.00 98 1024.2
20260510100739 33 325 0.0 0.0 0.00 0.00 0.00 98 1024.3
20260510100238 33 334 0.0 0.0 0.00 0.00 0.00 98 1024.4
20260510095733 33 336 0.0 0.0 0.00 0.00 0.00 98 1024.4
20260510095228 33 333 0.0 0.0 0.00 0.00 0.00 98 1024.3
20260510094727 33 341 0.0 0.0 0.00 0.00 0.00 98 1024.3
20260510094223 33 342 0.0 0.0 0.00 0.00 0.00 98 1024.2
20260510093719 33 342 0.0 0.0 0.00 0.00 0.00 98 1024.3
20260510093216 33 339 0.0 0.0 0.00 0.00 0.00 97 1024.5
20260510092712 33 337 0.0 0.0 0.00 0.00 0.00 97 1024.7
20260510092208 33 337 0.0 0.0 0.00 0.00 0.00 97 1024.5
20260510091704 34 343 0.0 0.0 0.00 0.00 0.00 97 1024.3
20260510091200 34 342 0.0 0.0 0.00 0.00 0.00 97 1024.6
20260510090657 34 338 0.0 0.0 0.00 0.00 0.00 97 1024.4
20260510090154 34 338 0.0 0.0 0.00 0.00 0.00 97 1024.4
20260510085649 34 350 0.0 0.0 0.00 0.00 0.00 97 1024.3
20260510085144 34 352 0.0 0.0 0.00 0.00 0.00 97 1024.1
20260510084641 34 353 0.0 0.0 0.00 0.00 0.00 96 1024.2
20260510084137 35 331 0.0 0.0 0.00 0.00 0.00 97 1024.4
20260510083634 35 332 0.0 0.0 0.00 0.00 0.00 96 1024.3
20260510083131 35 331 0.0 0.0 0.00 0.00 0.00 96 1024.4
20260510082627 35 331 0.0 0.0 0.00 0.00 0.00 96 1024.3
20260510082123 35 331 0.0 0.0 0.00 0.00 0.00 96 1024.4
20260510081617 35 332 0.0 0.0 0.00 0.00 0.00 96 1024.4
20260510081114 35 332 0.0 0.0 0.00 0.00 0.00 96 1024.4
20260510080608 35 331 0.0 0.0 0.00 0.00 0.00 96 1024.5
20260510080104 35 332 0.0 0.0 0.00 0.00 0.00 95 1024.5
20260510075601 36 331 0.0 0.0 0.00 0.00 0.00 95 1024.4
20260510075058 36 329 0.0 0.0 0.00 0.00 0.00 95 1024.5
20260510074555 36 331 0.0 0.0 0.00 0.00 0.00 95 1024.5
20260510074051 36 328 0.0 0.0 0.00 0.00 0.00 95 1024.7
20260510073547 36 332 0.0 0.0 0.00 0.00 0.00 95 1024.5
20260510073044 37 332 0.0 0.0 0.00 0.00 0.00 95 1024.5
20260510072541 37 338 0.0 0.0 0.00 0.00 0.00 94 1024.6
20260510072036 37 338 0.0 0.0 0.00 0.00 0.00 94 1024.5
20260510071533 37 337 0.0 0.0 0.00 0.00 0.00 94 1024.5
20260510071031 37 337 0.0 0.0 0.00 0.00 0.00 93 1024.5
20260510070528 37 338 0.0 0.0 0.00 0.00 0.00 93 1024.3
20260510070025 37 339 0.0 0.0 0.00 0.00 0.00 93 1024.6
20260510065521 38 336 0.0 0.0 0.00 0.00 0.00 93 1024.4
20260510065017 38 323 0.0 0.0 0.00 0.00 0.00 93 1024.5
20260510064514 38 334 0.0 0.0 0.00 0.00 0.00 92 1024.5
20260510064010 38 333 0.0 0.0 0.00 0.00 0.00 93 1024.4
20260510063507 39 332 0.0 0.0 0.00 0.00 0.00 92 1024.3
20260510063005 39 332 0.0 0.0 0.00 0.00 0.00 91 1024.4
20260510062500 39 333 0.0 0.0 0.00 0.00 0.00 91 1024.3
20260510061955 39 332 0.0 0.0 0.00 0.00 0.00 91 1024.4
20260510061452 39 331 0.0 0.0 0.00 0.00 0.00 92 1024.3
20260510060949 40 332 0.0 0.0 0.00 0.00 0.00 90 1024.4
20260510060446 40 332 0.0 0.0 0.00 0.00 0.00 90 1024.4
20260510055942 40 332 0.0 0.0 0.00 0.00 0.00 90 1024.5
20260510055438 40 332 0.0 0.0 0.00 0.00 0.00 90 1024.4
20260510054936 41 332 0.0 0.0 0.00 0.00 0.00 89 1024.4
20260510054431 41 332 0.0 0.0 0.00 0.00 0.00 89 1024.2
20260510053926 41 336 0.0 0.0 0.00 0.00 0.00 87 1024.3
20260510053422 42 336 0.0 0.0 0.00 0.00 0.00 87 1024.3
20260510052918 42 336 0.0 0.0 0.00 0.00 0.00 87 1024.4
20260510052414 42 334 0.0 0.0 0.00 0.00 0.00 87 1024.5
20260510051911 42 340 0.0 0.0 0.00 0.00 0.00 86 1024.1
20260510051408 42 329 0.0 0.0 0.00 0.00 0.00 86 1024.3
20260510050904 42 330 0.0 0.0 0.00 0.00 0.00 87 1024.3
20260510050401 43 329 0.0 0.0 0.00 0.00 0.00 86 1024.2
20260510045857 43 329 0.0 0.0 0.00 0.00 0.00 85 1024.3
20260510045354 44 329 0.0 0.0 0.00 0.00 0.00 85 1024.2
20260510044851 44 329 0.0 0.0 0.00 0.00 0.00 84 1024.4
20260510044348 44 330 0.0 0.0 0.00 0.00 0.00 83 1024.1
20260510043845 44 328 0.0 0.0 0.00 0.00 0.00 84 1024.3
20260510043341 45 327 0.0 0.0 0.00 0.00 0.00 83 1024.1
20260510042839 45 335 0.0 0.0 0.00 0.00 0.00 83 1024.2
20260510042334 45 335 0.0 0.0 0.00 0.00 0.00 82 1024.1
20260510041831 45 334 0.0 0.0 0.00 0.00 0.00 81 1024.0
20260510041328 46 335 0.0 0.0 0.00 0.00 0.00 80 1023.8
20260510040826 46 334 0.0 0.0 0.00 0.00 0.00 80 1023.8
20260510040322 46 334 0.0 0.0 0.00 0.00 0.00 79 1023.7
20260510035817 47 334 0.0 0.0 0.00 0.00 0.00 78 1023.8
20260510035314 47 341 0.0 0.0 0.00 0.00 0.00 77 1023.6
20260510034809 48 326 0.0 0.0 0.00 0.00 0.00 77 1023.7
20260510034307 48 332 0.0 0.0 0.00 0.00 0.00 75 1023.7
20260510033804 48 330 0.0 0.0 0.00 0.00 0.00 74 1023.5
20260510033301 49 331 0.0 0.0 0.00 0.00 0.00 73 1023.4
20260510032758 49 329 0.0 0.0 0.00 0.00 0.00 72 1023.3
20260510032254 49 337 0.0 0.0 0.00 0.00 0.00 72 1023.2
20260510031750 50 323 0.0 1.0 0.00 0.00 0.00 73 1023.1
20260510031246 50 332 0.0 0.0 0.00 0.00 0.00 70 1023.2
20260510030744 50 329 0.0 0.0 0.00 0.00 0.00 71 1023.0
20260510030237 51 329 0.0 0.0 0.00 0.00 0.00 69 1023.0
20260510025734 52 341 0.0 0.0 0.00 0.00 0.00 66 1022.8
20260510025232 52 341 0.0 0.0 0.00 0.00 0.00 66 1022.8
20260510024728 53 340 0.0 0.0 0.00 0.00 0.00 67 1022.8
20260510024224 53 340 0.0 0.0 0.00 0.00 0.00 65 1022.7
20260510023720 54 341 0.0 0.0 0.00 0.00 0.00 64 1022.8
20260510023217 54 341 0.0 0.0 0.00 0.00 0.00 64 1022.6
20260510022714 55 341 0.0 0.0 0.00 0.00 0.00 64 1022.5
20260510022208 55 334 0.0 1.0 0.00 0.00 0.00 63 1022.5
20260510021703 56 332 0.0 0.0 0.00 0.00 0.00 60 1022.5
20260510021201 57 332 0.0 0.0 0.00 0.00 0.00 60 1022.4
20260510020656 57 323 0.0 0.0 0.00 0.00 0.00 59 1022.2
20260510020151 57 326 0.0 0.0 0.00 0.00 0.00 56 1022.3
20260510015647 58 332 0.0 0.0 0.00 0.00 0.00 57 1022.2
20260510015144 59 322 0.0 0.0 0.00 0.00 0.00 58 1022.3
20260510014644 59 301 1.0 1.0 0.00 0.00 0.00 54 1022.2
20260510014142 60 330 0.0 0.0 0.00 0.00 0.00 53 1022.2
20260510013637 60 326 0.0 0.0 0.00 0.00 0.00 50 1022.3
20260510013133 62 314 1.0 2.0 0.00 0.00 0.00 51 1022.2
20260510012633 64 329 0.0 1.0 0.00 0.00 0.00 47 1022.0
20260510012129 64 329 0.0 0.0 0.00 0.00 0.00 42 1022.2
20260510011628 65 327 0.0 2.0 0.00 0.00 0.00 44 1022.3
20260510011124 68 321 2.0 2.0 0.00 0.00 0.00 39 1022.2
20260510010620 69 326 0.0 2.0 0.00 0.00 0.00 34 1022.0
20260510010118 69 358 1.0 3.0 0.00 0.00 0.00 31 1022.0
20260510005613 69 316 1.0 2.0 0.00 0.00 0.00 32 1021.8
20260510005111 70 301 5.0 7.0 0.00 0.00 0.00 29 1022.1
20260510004609 70 331 1.0 5.0 0.00 0.00 0.00 29 1021.8
20260510004107 70 344 3.0 5.0 0.00 0.00 0.00 28 1022.0
20260510003603 69 326 0.0 5.0 0.00 0.00 0.00 29 1022.0
20260510003059 69 10 5.0 6.0 0.00 0.00 0.00 28 1022.0
20260510002555 70 354 0.0 6.0 0.00 0.00 0.00 29 1022.1
20260510002052 70 88 3.0 6.0 0.00 0.00 0.00 28 1021.7
20260510001549 71 319 2.0 3.0 0.00 0.00 0.00 27 1021.8
20260510001048 70 326 0.0 1.0 0.00 0.00 0.00 28 1021.8
20260510000548 69 1 3.0 5.0 0.00 0.00 0.00 29 1022.1
20260510000045 69 306 2.0 6.0 0.00 0.00 0.00 28 1021.8
20260509235541 69 4 1.0 3.0 0.00 0.00 0.00 29 1021.8
20260509235038 70 4 0.0 2.0 0.00 0.00 0.00 28 1021.7
20260509234534 71 287 2.0 3.0 0.00 0.00 0.00 27 1022.0
20260509234032 71 317 2.0 3.0 0.00 0.00 0.00 28 1022.0
20260509233529 70 344 1.0 3.0 0.00 0.00 0.00 28 1022.2
20260509233027 70 318 4.0 6.0 0.00 0.00 0.00 27 1022.0
20260509232523 70 0 1.0 6.0 0.00 0.00 0.00 28 1022.2
20260509232020 70 343 1.0 3.0 0.00 0.00 0.00 28 1022.1
20260509231516 69 347 1.0 5.0 0.00 0.00 0.00 28 1022.1
20260509231014 71 42 2.0 2.0 0.00 0.00 0.00 32 1021.8
20260509230511 70 305 0.0 3.0 0.00 0.00 0.00 28 1022.2
20260509230008 71 357 5.0 7.0 0.00 0.00 0.00 27 1022.2
20260509225503 70 331 2.0 7.0 0.00 0.00 0.00 30 1022.2
20260509224959 70 338 0.0 2.0 0.00 0.00 0.00 29 1022.4
20260509224454 69 323 0.0 2.0 0.00 0.00 0.00 27 1022.4
20260509223952 69 10 4.0 6.0 0.00 0.00 0.00 28 1022.4
20260509223448 69 331 4.0 6.0 0.00 0.00 0.00 30 1022.4
20260509222946 69 341 2.0 7.0 0.00 0.00 0.00 30 1022.4
20260509222441 69 307 6.0 8.0 0.00 0.00 0.00 29 1022.5
20260509221937 70 22 6.0 9.0 0.00 0.00 0.00 29 1022.5
20260509221434 69 20 7.0 8.0 0.00 0.00 0.00 30 1022.6
20260509220929 69 0 0.0 0.0 0.00 0.00 0.00 31 1022.7
20260509220426 68 27 4.0 7.0 0.00 0.00 0.00 30 1022.7
20260509215922 67 356 5.0 7.0 0.00 0.00 0.00 31 1022.8
20260509215418 67 333 1.0 6.0 0.00 0.00 0.00 33 1023.0
20260509214915 68 349 3.0 3.0 0.00 0.00 0.00 30 1022.7
20260509214412 68 300 2.0 6.0 0.00 0.00 0.00 30 1022.6
20260509213909 68 21 1.0 3.0 0.00 0.00 0.00 33 1022.7
20260509213405 67 6 2.0 5.0 0.00 0.00 0.00 33 1022.8
20260509212903 66 307 1.0 3.0 0.00 0.00 0.00 33 1023.0